Lancaster, CA

1:11 PM PST on December 12, 2017 (GMT -0800)
Gen Fox

Weather History for KWJF - June, 2013

Change the Weather History Date:

Sunday, June 23, 2013

  Actual Average Record
Temperature  
Mean Temperature 77 °F 78 °F  
Max Temperature 86 °F 93 °F 110 °F (1954)
Min Temperature 67 °F 63 °F 47 °F (1955)
Degree Days  
Heating Degree Days 0    
Month to date heating degree days 0  
Since 1 June heating degree days 0  
Since 1 July heating degree days 2717  
Cooling Degree Days 12    
Month to date cooling degree days 320  
Year to date cooling degree days 578  
Since 1 June cooling degree days 320  
Growing Degree Days 27 (Base 50)    
Moisture  
Dew Point 43 °F    
Average Humidity 35    
Maximum Humidity 53    
Minimum Humidity 17    
Precipitation  
Precipitation 0.00 in 0.00 in 0.00 in (2017)
Month to date precipitation 0.00 0.04  
Year to date precipitation 1.10 4.90  
Since 1 July precipitation 1.26  
Snow  
Snow 0.00 in - 0.00 in ()
Month to date snowfall 0.0  
Since 1 June snowfall 0.0  
Since 1 July snowfall 0.0  
Snow Depth 0.00 in    
Sea Level Pressure  
Sea Level Pressure 29.75 in    
Wind  
Wind Speed 20 mph (WSW)    
Max Wind Speed 29 mph    
Max Gust Speed 38 mph    
Visibility 10 miles    
Events      
T = Trace of Precipitation, MM = Missing Value Source: NWS Daily Summary

Daily Weather History Graph

Daily Weather History Graph

Search for Another Location

Airport or City:

Trip Planner

Search our weather history database for the weather conditions in past years. The results will help you decide how hot, cold, wet, or windy it might be!

Date:

Astronomy

Jun. 23, 2013 Rise Set
Actual Time 5:40 AM PDT 8:09 PM PDT
Civil Twilight 5:10 AM PDT 8:39 PM PDT
Nautical Twilight 4:34 AM PDT 9:15 PM PDT
Astronomical Twilight 3:54 AM PDT 9:56 PM PDT
Moon 8:29 PM PDT (6/23) 6:00 AM PDT (6/23)
Length of Visible Light 15h 28m
Length of Day
14h 29m
Full, 100% of the Moon is Illuminated
Jun 23
Full
Jun 29
Last Quarter
Jul 8
New
Jul 15
First Quarter
Jul 22
Full

Hourly Weather History & Observations

Time (PDT) Temp. Dew Point Humidity Pressure Visibility Wind Dir Wind Speed Gust Speed Precip Events Conditions
12:56 AM 71.1 °F 39.9 °F 32% 29.79 in 10.0 mi WSW 13.8 mph - N/A   Clear
1:56 AM 70.0 °F 39.9 °F 33% 29.77 in 10.0 mi WSW 11.5 mph - N/A   Clear
2:56 AM 72.0 °F 36.0 °F 27% 29.75 in 10.0 mi West 17.3 mph - N/A   Clear
3:56 AM 71.1 °F 37.0 °F 29% 29.75 in 10.0 mi West 16.1 mph - N/A   Clear
4:56 AM 69.1 °F 39.0 °F 33% 29.75 in 10.0 mi West 15.0 mph - N/A   Clear
5:56 AM 70.0 °F 39.0 °F 32% 29.75 in 10.0 mi WSW 12.7 mph - N/A   Clear
6:56 AM 72.0 °F 39.9 °F 31% 29.76 in 10.0 mi WSW 15.0 mph - N/A   Clear
7:56 AM 77.0 °F 34.0 °F 21% 29.77 in 10.0 mi WSW 24.2 mph 32.2 mph N/A   Clear
8:56 AM 80.1 °F 32.0 °F 17% 29.76 in 10.0 mi West 27.6 mph - N/A   Clear
9:56 AM 82.0 °F 39.9 °F 22% 29.75 in 10.0 mi SW 17.3 mph 28.8 mph N/A   Clear
10:56 AM 84.0 °F 39.9 °F 21% 29.75 in 10.0 mi WSW 21.9 mph - N/A   Clear
11:56 AM 82.9 °F 42.1 °F 24% 29.75 in 10.0 mi WSW 26.5 mph 35.7 mph N/A   Clear
12:56 PM 86.0 °F 43.0 °F 22% 29.75 in 10.0 mi WSW 25.3 mph 35.7 mph N/A   Clear
1:56 PM 84.0 °F 45.0 °F 25% 29.74 in 10.0 mi WSW 20.7 mph 33.4 mph N/A   Clear
2:56 PM 84.9 °F 46.0 °F 26% 29.73 in 10.0 mi WSW 26.5 mph 33.4 mph N/A   Clear
3:56 PM 84.0 °F 46.9 °F 27% 29.74 in 10.0 mi WSW 19.6 mph 31.1 mph N/A   Clear
4:56 PM 78.1 °F 48.9 °F 36% 29.74 in 10.0 mi WSW 24.2 mph - N/A   Clear
5:56 PM 75.9 °F 51.1 °F 42% 29.74 in 10.0 mi WSW 19.6 mph - N/A   Clear
6:56 PM 75.9 °F 52.0 °F 43% 29.74 in 10.0 mi WSW 21.9 mph - N/A   Clear
7:56 PM 73.0 °F 51.1 °F 46% 29.73 in 10.0 mi WSW 19.6 mph - N/A   Clear
8:56 PM 69.1 °F 51.1 °F 53% 29.74 in 10.0 mi SW 17.3 mph - N/A   Clear
9:56 PM 70.0 °F 48.0 °F 46% 29.75 in 10.0 mi WSW 21.9 mph - N/A   Clear
10:56 PM 68.0 °F 48.9 °F 50% 29.74 in 10.0 mi WSW 15.0 mph - N/A   Clear
11:56 PM 69.1 °F 44.1 °F 40% 29.75 in 10.0 mi West 18.4 mph 27.6 mph N/A   Clear